Regional Weather Roundup
Issued by NWS

Home | Current Version | Previous Version | Graphics & Text | Print | Product List | Glossary On
Versions: 1 2 3 4 5 6 7 8 9 10 11 12 13 14 15 16 17 18 19 20 21 22 23 24 25 26 27 28 29 30 31 32 33 34 35 36 37 38 39 40 41 42 43 44 45 46 47 48 49 50
000
ASUS45 KCYS 061010
RWRWY

WYOMING REGIONAL WEATHER ROUNDUP
NATIONAL WEATHER SERVICE CHEYENNE WY
400 AM MDT MON JUL 06 2015

NOTE:  "FAIR" INDICATES FEW OR NO CLOUDS BELOW 12,000 FEET
WITH NO SIGNIFICANT WEATHER AND/OR OBSTRUCTIONS TO VISIBILITY.

WYZ001-061100-
YELLOWSTONE NATIONAL PARK

CITY           SKY/WX    TMP DP  RH WIND       PRES   REMARKS
LK YELLOWSTONE   N/A     46  44  93 CALM      30.37R
W YELLOWSTONE  NOT AVBL

$$
WYZ002>013-054>058-071-098>099-061100-
NORTHERN WYOMING

CITY           SKY/WX    TMP DP  RH WIND       PRES   REMARKS
JACKSON        CLOUDY    54  52  94 NW7       30.28F
CODY           CLOUDY    54  48  82 N7        30.26R
GREYBULL       FAIR      56  53  90 W13       30.20R
WORLAND        CLOUDY    56  54  93 CALM      30.21R FOG
SHERIDAN       CLOUDY    53  51  93 NE6       30.23S FOG
BUFFALO        LGT RAIN  53  53 100 N9        30.26R FOG
GILLETTE       CLOUDY    54  52  93 N10       30.21S FOG
HULETT         CLOUDY    54  52  94 CALM      30.22R FOG
NEWCASTLE      CLOUDY    57  48  72 NW7       30.19R HAZE

$$
WYZ014>020-022>026-101>103-061100-
CENTRAL WYOMING

CITY           SKY/WX    TMP DP  RH WIND       PRES   REMARKS
BIG PINEY      CLOUDY    55  50  83 N9        30.29R
PINEDALE       CLOUDY    52  50  93 W7        30.29R
DUBOIS         RAIN      52  48  87 CALM      30.29S
LANDER         LGT RAIN  55  53  93 W3        30.25S FOG
RIVERTON       RAIN      56  52  86 NE3       30.25R
CASPER         CLOUDY    54  52  93 N9        30.24S
DOUGLAS        CLOUDY    55  53  93 N9        30.23R FOG

$$
WYZ021-027>030-104>119-061100-
SOUTHERN WYOMING

CITY           SKY/WX    TMP DP  RH WIND       PRES   REMARKS
EVANSTON       FAIR      55  51  86 CALM      30.26S
KEMMERER       FAIR      54  48  82 N10       30.29R
FORT BRIDGER   PTSUNNY   55  55 100 NW7       30.30R
ROCK SPRINGS   CLOUDY    56  53  90 E5        30.27S
DIXON          CLOUDY    55  52  90 CALM      30.27F
RAWLINS        RAIN      54  52  93 NW13      30.26R FOG
SARATOGA       LGT RAIN  55  54  94 SW3       30.27S
LARAMIE        CLOUDY    56  54  93 E6        30.24S
CHEYENNE       LGT RAIN  56  55  97 N10       30.21R FOG
TORRINGTON     RAIN      59  58  96 N8        30.14S FOG
PINE BLUFFS    CLOUDY    57  55  94 N9        30.17R

$$



USA.gov is the U.S. government's official web portal to all federal, state and local government web resources and services.